Time,TemperatureF,DewpointF,PressureIn,WindDirection,WindDirectionDegrees,WindSpeedMPH,WindSpeedGustMPH,Humidity,HourlyPrecipIn,Conditions,Clouds,dailyrainin,SoftwareType,DateUTC
2013-08-23 00:00:00,71.6,68.8,29.79,South,171,3.0,5.6,90,0.00,n/a,n/a,-99.99,Henriksen +1-Wire,2013-08-23 04:00:00,
2013-08-23 00:02:00,71.6,68.8,29.80,SSW,202,2.8,5.6,90,0.00,n/a,n/a,-99.99,Henriksen +1-Wire,2013-08-23 04:02:00,
2013-08-23 00:04:00,71.6,68.8,29.79,SSW,199,2.6,5.6,90,0.00,n/a,n/a,-99.99,Henriksen +1-Wire,2013-08-23 04:04:00,
2013-08-23 00:06:00,71.5,68.8,29.79,SSW,201,1.8,4.4,90,0.00,n/a,n/a,-99.99,Henriksen +1-Wire,2013-08-23 04:06:00,
2013-08-23 00:12:00,71.5,68.6,29.79,South,186,2.1,5.1,90,0.00,n/a,n/a,-99.99,Henriksen +1-Wire,2013-08-23 04:12:00,
2013-08-23 00:18:00,71.4,68.8,29.79,SSW,196,1.7,5.0,91,0.00,n/a,n/a,-99.99,Henriksen +1-Wire,2013-08-23 04:18:00,
2013-08-23 00:22:00,71.4,68.8,29.79,SSE,167,2.9,5.0,91,0.00,n/a,n/a,-99.99,Henriksen +1-Wire,2013-08-23 04:22:00,
2013-08-23 00:28:00,71.2,68.7,29.79,SSE,166,3.4,4.7,91,0.00,n/a,n/a,-99.99,Henriksen +1-Wire,2013-08-23 04:28:00,
2013-08-23 00:34:00,71.2,68.7,29.80,SSW,201,1.9,4.6,91,0.00,n/a,n/a,-99.99,Henriksen +1-Wire,2013-08-23 04:34:00,
2013-08-23 00:40:00,70.9,68.5,29.79,SSW,209,0.0,3.8,91,0.00,n/a,n/a,-99.99,Henriksen +1-Wire,2013-08-23 04:40:00,
2013-08-23 00:46:00,70.8,68.4,29.79,South,173,0.0,0.0,91,0.00,n/a,n/a,-99.99,Henriksen +1-Wire,2013-08-23 04:46:00,
2013-08-23 00:52:00,70.7,68.4,29.79,SSE,156,0.0,0.0,92,0.00,n/a,n/a,-99.99,Henriksen +1-Wire,2013-08-23 04:52:00,
2013-08-23 00:58:00,70.7,68.5,29.79,SSE,155,0.0,0.0,92,0.00,n/a,n/a,-99.99,Henriksen +1-Wire,2013-08-23 04:58:00,
2013-08-23 01:04:00,70.7,68.5,29.79,SSW,205,0.0,0.0,92,0.00,n/a,n/a,-99.99,Henriksen +1-Wire,2013-08-23 05:04:00,
2013-08-23 01:10:00,70.5,68.3,29.79,SSW,195,0.0,0.0,92,0.00,n/a,n/a,-99.99,Henriksen +1-Wire,2013-08-23 05:10:00,
2013-08-23 01:16:00,70.4,68.3,29.79,SSW,195,0.0,0.0,92,0.00,n/a,n/a,-99.99,Henriksen +1-Wire,2013-08-23 05:16:00,
2013-08-23 01:22:00,70.3,68.2,29.78,SSW,204,0.0,0.0,93,0.00,n/a,n/a,-99.99,Henriksen +1-Wire,2013-08-23 05:22:00,
2013-08-23 01:28:00,70.1,67.9,29.79,South,184,0.0,0.0,92,0.00,n/a,n/a,-99.99,Henriksen +1-Wire,2013-08-23 05:28:00,
2013-08-23 01:34:00,70.1,68.0,29.79,SSE,156,0.0,0.0,93,0.00,n/a,n/a,-99.99,Henriksen +1-Wire,2013-08-23 05:34:00,
2013-08-23 01:40:00,70.0,68.0,29.79,SSE,167,0.0,0.0,93,0.00,n/a,n/a,-99.99,Henriksen +1-Wire,2013-08-23 05:40:00,
2013-08-23 01:46:00,70.0,68.0,29.79,SSW,205,0.0,0.0,93,0.00,n/a,n/a,-99.99,Henriksen +1-Wire,2013-08-23 05:46:00,
2013-08-23 01:52:00,70.1,68.1,29.79,South,186,0.8,2.2,93,0.00,n/a,n/a,-99.99,Henriksen +1-Wire,2013-08-23 05:52:00,
2013-08-23 01:58:00,70.3,68.2,29.80,South,170,1.6,2.2,93,0.00,n/a,n/a,-99.99,Henriksen +1-Wire,2013-08-23 05:58:00,
2013-08-23 02:04:00,70.3,68.2,29.79,South,187,0.4,2.7,92,0.00,n/a,n/a,-99.99,Henriksen +1-Wire,2013-08-23 06:04:00,
2013-08-23 02:10:00,70.5,68.2,29.79,South,172,0.1,2.7,92,0.00,n/a,n/a,-99.99,Henriksen +1-Wire,2013-08-23 06:10:00,
2013-08-23 02:16:00,70.6,68.1,29.79,SSE,165,0.3,4.4,91,0.00,n/a,n/a,-99.99,Henriksen +1-Wire,2013-08-23 06:16:00,
2013-08-23 02:22:00,70.6,68.2,29.79,SSE,164,1.4,4.4,91,0.00,n/a,n/a,-99.99,Henriksen +1-Wire,2013-08-23 06:22:00,
2013-08-23 02:28:00,70.7,68.2,29.80,SSE,164,0.5,3.1,91,0.00,n/a,n/a,-99.99,Henriksen +1-Wire,2013-08-23 06:28:00,
2013-08-23 02:34:00,70.9,68.0,29.80,WNW,298,0.7,3.9,90,0.00,n/a,n/a,-99.99,Henriksen +1-Wire,2013-08-23 06:34:00,
2013-08-23 02:40:00,71.2,67.8,29.80,West,273,0.6,3.9,88,0.00,n/a,n/a,-99.99,Henriksen +1-Wire,2013-08-23 06:40:00,
2013-08-23 02:46:00,71.5,67.3,29.80,WNW,298,1.7,6.6,86,0.00,n/a,n/a,-99.99,Henriksen +1-Wire,2013-08-23 06:46:00,
2013-08-23 02:52:00,71.7,67.1,29.80,WSW,247,1.7,9.6,85,0.00,n/a,n/a,-99.99,Henriksen +1-Wire,2013-08-23 06:52:00,
2013-08-23 02:58:00,71.8,66.7,29.80,WNW,298,2.4,9.6,83,0.00,n/a,n/a,-99.99,Henriksen +1-Wire,2013-08-23 06:58:00,
2013-08-23 03:04:00,71.8,66.2,29.79,WNW,291,2.7,6.3,82,0.00,n/a,n/a,-99.99,Henriksen +1-Wire,2013-08-23 07:04:00,
2013-08-23 03:10:00,71.9,65.7,29.79,NW,312,3.1,6.6,80,0.00,n/a,n/a,-99.99,Henriksen +1-Wire,2013-08-23 07:10:00,
2013-08-23 03:16:00,71.9,65.3,29.79,WNW,293,2.6,7.1,79,0.00,n/a,n/a,-99.99,Henriksen +1-Wire,2013-08-23 07:16:00,
2013-08-23 03:22:00,72.0,64.9,29.80,NNW,327,3.8,7.7,78,0.00,n/a,n/a,-99.99,Henriksen +1-Wire,2013-08-23 07:22:00,
2013-08-23 03:28:00,71.9,64.6,29.79,WNW,294,2.6,9.0,77,0.00,n/a,n/a,-99.99,Henriksen +1-Wire,2013-08-23 07:28:00,
2013-08-23 03:34:00,71.8,64.5,29.80,WSW,248,3.3,9.0,77,0.00,n/a,n/a,-99.99,Henriksen +1-Wire,2013-08-23 07:34:00,
2013-08-23 03:40:00,71.6,64.4,29.80,WNW,291,2.6,7.3,77,0.00,n/a,n/a,-99.99,Henriksen +1-Wire,2013-08-23 07:40:00,
2013-08-23 03:46:00,71.4,64.3,29.80,NW,306,2.2,7.3,77,0.00,n/a,n/a,-99.99,Henriksen +1-Wire,2013-08-23 07:46:00,
2013-08-23 03:52:00,71.2,64.1,29.80,WNW,298,2.6,6.1,77,0.00,n/a,n/a,-99.99,Henriksen +1-Wire,2013-08-23 07:52:00,
2013-08-23 03:58:00,71.1,63.9,29.80,WNW,299,2.2,6.7,77,0.00,n/a,n/a,-99.99,Henriksen +1-Wire,2013-08-23 07:58:00,
2013-08-23 04:04:00,70.9,63.8,29.80,NW,312,1.5,6.7,78,0.00,n/a,n/a,-99.99,Henriksen +1-Wire,2013-08-23 08:04:00,
2013-08-23 04:10:00,70.6,63.7,29.80,NW,310,3.1,6.2,78,0.00,n/a,n/a,-99.99,Henriksen +1-Wire,2013-08-23 08:10:00,
2013-08-23 04:16:00,70.4,63.7,29.80,NNW,329,2.7,7.3,78,0.00,n/a,n/a,-99.99,Henriksen +1-Wire,2013-08-23 08:16:00,
2013-08-23 04:22:00,70.3,63.5,29.80,NW,313,0.8,7.3,78,0.00,n/a,n/a,-99.99,Henriksen +1-Wire,2013-08-23 08:22:00,
2013-08-23 04:28:00,70.2,63.4,29.81,NW,325,3.7,7.7,78,0.00,n/a,n/a,-99.99,Henriksen +1-Wire,2013-08-23 08:28:00,
2013-08-23 04:34:00,70.0,63.3,29.81,NW,310,3.8,7.7,79,0.00,n/a,n/a,-99.99,Henriksen +1-Wire,2013-08-23 08:34:00,
2013-08-23 04:40:00,69.8,63.2,29.81,WNW,299,1.8,5.8,79,0.00,n/a,n/a,-99.99,Henriksen +1-Wire,2013-08-23 08:40:00,
2013-08-23 04:46:00,69.6,63.1,29.81,WNW,291,2.3,5.5,79,0.00,n/a,n/a,-99.99,Henriksen +1-Wire,2013-08-23 08:46:00,
2013-08-23 04:52:00,69.4,63.0,29.81,North,357,1.3,5.5,79,0.00,n/a,n/a,-99.99,Henriksen +1-Wire,2013-08-23 08:52:00,
2013-08-23 04:58:00,69.3,62.7,29.82,NW,319,2.4,7.2,79,0.00,n/a,n/a,-99.99,Henriksen +1-Wire,2013-08-23 08:58:00,
2013-08-23 05:04:00,69.1,62.6,29.82,SSW,205,1.7,7.2,79,0.00,n/a,n/a,-99.99,Henriksen +1-Wire,2013-08-23 09:04:00,
2013-08-23 05:10:00,68.9,62.6,29.82,SSW,199,0.1,3.7,80,0.00,n/a,n/a,-99.99,Henriksen +1-Wire,2013-08-23 09:10:00,
2013-08-23 05:16:00,68.6,62.7,29.82,NW,322,2.8,6.2,81,0.00,n/a,n/a,-99.99,Henriksen +1-Wire,2013-08-23 09:16:00,
2013-08-23 05:22:00,68.5,62.4,29.82,WNW,296,2.4,6.2,80,0.00,n/a,n/a,-99.99,Henriksen +1-Wire,2013-08-23 09:22:00,
2013-08-23 05:28:00,68.4,62.1,29.82,NW,310,3.2,5.7,80,0.00,n/a,n/a,-99.99,Henriksen +1-Wire,2013-08-23 09:28:00,
2013-08-23 05:34:00,68.4,62.3,29.82,WNW,293,2.7,5.7,80,0.00,n/a,n/a,-99.99,Henriksen +1-Wire,2013-08-23 09:34:00,
2013-08-23 05:40:00,68.3,62.2,29.82,NNW,329,2.9,5.6,80,0.00,n/a,n/a,-99.99,Henriksen +1-Wire,2013-08-23 09:40:00,
2013-08-23 05:46:00,68.2,62.2,29.82,WNW,298,2.1,7.5,80,0.00,n/a,n/a,-99.99,Henriksen +1-Wire,2013-08-23 09:46:00,
2013-08-23 05:52:00,68.2,62.0,29.83,West,278,3.9,8.4,80,0.00,n/a,n/a,-99.99,Henriksen +1-Wire,2013-08-23 09:52:00,
2013-08-23 05:58:00,68.2,61.9,29.83,NW,312,3.3,8.3,80,0.00,n/a,n/a,-99.99,Henriksen +1-Wire,2013-08-23 09:58:00,
2013-08-23 06:04:00,68.1,62.0,29.83,NW,304,1.8,6.8,80,0.00,n/a,n/a,-99.99,Henriksen +1-Wire,2013-08-23 10:04:00,
2013-08-23 06:10:00,68.1,62.1,29.84,WNW,302,3.1,7.4,80,0.00,n/a,n/a,-99.99,Henriksen +1-Wire,2013-08-23 10:10:00,
2013-08-23 06:16:00,68.1,62.0,29.84,NW,312,3.3,7.3,80,0.00,n/a,n/a,-99.99,Henriksen +1-Wire,2013-08-23 10:16:00,
2013-08-23 06:22:00,68.0,62.0,29.84,WNW,287,3.2,7.3,80,0.00,n/a,n/a,-99.99,Henriksen +1-Wire,2013-08-23 10:22:00,
2013-08-23 06:28:00,68.0,61.9,29.84,NW,313,2.9,7.3,80,0.00,n/a,n/a,-99.99,Henriksen +1-Wire,2013-08-23 10:28:00,
2013-08-23 06:34:00,68.1,61.9,29.84,NNW,336,4.9,8.1,80,0.00,n/a,n/a,-99.99,Henriksen +1-Wire,2013-08-23 10:34:00,
2013-08-23 06:40:00,68.1,61.6,29.84,NNW,330,4.0,11.1,79,0.00,n/a,n/a,-99.99,Henriksen +1-Wire,2013-08-23 10:40:00,
2013-08-23 06:46:00,68.0,61.7,29.85,NW,320,2.7,11.1,80,0.00,n/a,n/a,-99.99,Henriksen +1-Wire,2013-08-23 10:46:00,
2013-08-23 06:52:00,67.9,61.7,29.85,WNW,296,3.5,8.3,80,0.00,n/a,n/a,-99.99,Henriksen +1-Wire,2013-08-23 10:52:00,
2013-08-23 06:58:00,67.9,61.6,29.85,NW,305,2.2,8.2,80,0.00,n/a,n/a,-99.99,Henriksen +1-Wire,2013-08-23 10:58:00,
2013-08-23 07:04:00,67.9,61.7,29.86,NW,318,1.9,7.8,80,0.00,n/a,n/a,-99.99,Henriksen +1-Wire,2013-08-23 11:04:00,
2013-08-23 07:10:00,67.8,61.9,29.86,NW,317,3.3,7.5,81,0.00,n/a,n/a,-99.99,Henriksen +1-Wire,2013-08-23 11:10:00,
2013-08-23 07:16:00,67.7,61.8,29.86,NNW,335,3.0,7.5,81,0.00,n/a,n/a,-99.99,Henriksen +1-Wire,2013-08-23 11:16:00,
2013-08-23 07:22:00,67.7,61.8,29.87,NNW,331,2.9,8.7,80,0.00,n/a,n/a,-99.99,Henriksen +1-Wire,2013-08-23 11:22:00,
2013-08-23 07:28:00,67.8,61.7,29.87,NW,323,2.3,8.7,80,0.00,n/a,n/a,-99.99,Henriksen +1-Wire,2013-08-23 11:28:00,
2013-08-23 07:34:00,67.9,61.8,29.87,NW,314,4.1,7.5,80,0.00,n/a,n/a,-99.99,Henriksen +1-Wire,2013-08-23 11:34:00,
2013-08-23 07:40:00,68.0,61.5,29.88,NW,321,2.2,7.5,79,0.00,n/a,n/a,-99.99,Henriksen +1-Wire,2013-08-23 11:40:00,
2013-08-23 07:46:00,68.2,61.8,29.88,NNW,339,3.4,7.5,79,0.00,n/a,n/a,-99.99,Henriksen +1-Wire,2013-08-23 11:46:00,
2013-08-23 07:52:00,68.4,62.0,29.88,WSW,238,3.9,7.1,79,0.00,n/a,n/a,-99.99,Henriksen +1-Wire,2013-08-23 11:52:00,
2013-08-23 07:58:00,68.5,61.9,29.88,WNW,288,1.9,7.1,79,0.00,n/a,n/a,-99.99,Henriksen +1-Wire,2013-08-23 11:58:00,
2013-08-23 08:04:00,68.8,62.2,29.88,NNW,336,1.2,5.3,79,0.00,n/a,n/a,-99.99,Henriksen +1-Wire,2013-08-23 12:04:00,
2013-08-23 08:10:00,68.5,61.7,29.89,NNW,327,3.4,7.8,78,0.00,n/a,n/a,-99.99,Henriksen +1-Wire,2013-08-23 12:10:00,
2013-08-23 08:16:00,68.4,61.6,29.89,NW,304,3.0,7.8,78,0.00,n/a,n/a,-99.99,Henriksen +1-Wire,2013-08-23 12:16:00,
2013-08-23 08:22:00,68.6,61.9,29.90,WNW,299,2.2,7.5,78,0.00,n/a,n/a,-99.99,Henriksen +1-Wire,2013-08-23 12:22:00,
2013-08-23 08:28:00,68.8,61.9,29.89,NW,317,2.2,7.5,78,0.00,n/a,n/a,-99.99,Henriksen +1-Wire,2013-08-23 12:28:00,
2013-08-23 08:34:00,68.9,62.1,29.90,WNW,298,2.3,5.0,78,0.00,n/a,n/a,-99.99,Henriksen +1-Wire,2013-08-23 12:34:00,
2013-08-23 08:40:00,68.7,61.8,29.89,NW,309,2.8,9.2,78,0.00,n/a,n/a,-99.99,Henriksen +1-Wire,2013-08-23 12:40:00,
2013-08-23 08:46:00,68.7,61.6,29.89,NW,326,3.6,8.6,78,0.00,n/a,n/a,-99.99,Henriksen +1-Wire,2013-08-23 12:46:00,
2013-08-23 08:52:00,68.8,61.8,29.89,NNW,332,1.8,6.9,78,0.00,n/a,n/a,-99.99,Henriksen +1-Wire,2013-08-23 12:52:00,
2013-08-23 08:58:00,69.0,61.8,29.90,NW,324,3.8,7.5,77,0.00,n/a,n/a,-99.99,Henriksen +1-Wire,2013-08-23 12:58:00,
2013-08-23 09:04:00,69.3,61.8,29.90,NW,323,4.3,7.5,76,0.00,n/a,n/a,-99.99,Henriksen +1-Wire,2013-08-23 13:04:00,
2013-08-23 09:10:00,69.4,61.5,29.90,NNW,330,3.5,7.8,75,0.00,n/a,n/a,-99.99,Henriksen +1-Wire,2013-08-23 13:10:00,
2013-08-23 09:16:00,69.5,61.6,29.90,NNW,336,3.7,8.1,75,0.00,n/a,n/a,-99.99,Henriksen +1-Wire,2013-08-23 13:16:00,
2013-08-23 09:22:00,69.7,61.9,29.90,NW,324,2.1,8.1,76,0.00,n/a,n/a,-99.99,Henriksen +1-Wire,2013-08-23 13:22:00,
2013-08-23 09:28:00,69.9,61.8,29.91,NNW,334,5.0,8.1,74,0.00,n/a,n/a,-99.99,Henriksen +1-Wire,2013-08-23 13:28:00,
2013-08-23 09:34:00,70.2,61.7,29.90,NW,318,4.5,8.7,74,0.00,n/a,n/a,-99.99,Henriksen +1-Wire,2013-08-23 13:34:00,
2013-08-23 09:40:00,70.3,61.8,29.91,NW,320,2.9,9.0,74,0.00,n/a,n/a,-99.99,Henriksen +1-Wire,2013-08-23 13:40:00,
2013-08-23 09:46:00,70.3,61.4,29.91,NNW,330,2.8,9.6,73,0.00,n/a,n/a,-99.99,Henriksen +1-Wire,2013-08-23 13:46:00,
2013-08-23 09:52:00,70.6,61.5,29.91,NW,318,3.0,7.9,72,0.00,n/a,n/a,-99.99,Henriksen +1-Wire,2013-08-23 13:52:00,
2013-08-23 09:58:00,70.8,61.7,29.91,NW,320,2.2,8.7,72,0.00,n/a,n/a,-99.99,Henriksen +1-Wire,2013-08-23 13:58:00,
2013-08-23 10:04:00,71.0,61.3,29.91,WNW,290,3.9,10.4,71,0.00,n/a,n/a,-99.99,Henriksen +1-Wire,2013-08-23 14:04:00,
2013-08-23 10:10:00,71.0,61.0,29.91,NW,311,2.9,10.4,70,0.00,n/a,n/a,-99.99,Henriksen +1-Wire,2013-08-23 14:10:00,
2013-08-23 10:16:00,71.6,61.5,29.92,NW,316,5.7,9.4,70,0.00,n/a,n/a,-99.99,Henriksen +1-Wire,2013-08-23 14:16:00,
2013-08-23 10:22:00,72.1,61.4,29.91,NNW,334,2.6,9.4,68,0.00,n/a,n/a,-99.99,Henriksen +1-Wire,2013-08-23 14:22:00,
2013-08-23 10:28:00,72.5,61.6,29.92,NW,316,3.7,9.4,68,0.00,n/a,n/a,-99.99,Henriksen +1-Wire,2013-08-23 14:28:00,
2013-08-23 10:34:00,72.2,60.3,29.92,NNW,331,4.5,9.5,65,0.00,n/a,n/a,-99.99,Henriksen +1-Wire,2013-08-23 14:34:00,
2013-08-23 10:40:00,72.3,59.9,29.92,NNW,334,6.7,10.2,64,0.00,n/a,n/a,-99.99,Henriksen +1-Wire,2013-08-23 14:40:00,
2013-08-23 10:46:00,72.4,59.8,29.92,NNW,334,3.4,10.2,63,0.00,n/a,n/a,-99.99,Henriksen +1-Wire,2013-08-23 14:46:00,
2013-08-23 10:52:00,72.1,58.6,29.92,NNW,330,6.3,10.9,61,0.00,n/a,n/a,-99.99,Henriksen +1-Wire,2013-08-23 14:52:00,
2013-08-23 10:58:00,72.5,43.9,29.92,NNW,337,4.3,10.0,35,0.00,n/a,n/a,-99.99,Henriksen +1-Wire,2013-08-23 14:58:00,
2013-08-23 11:04:00,73.3,56.2,29.92,NW,316,3.3,8.5,54,0.00,n/a,n/a,-99.99,Henriksen +1-Wire,2013-08-23 15:04:00,
2013-08-23 11:10:00,73.3,59.8,29.92,NW,320,7.2,11.8,62,0.00,n/a,n/a,-99.99,Henriksen +1-Wire,2013-08-23 15:10:00,
2013-08-23 11:16:00,72.8,59.8,29.92,NW,316,4.3,11.8,63,0.00,n/a,n/a,-99.99,Henriksen +1-Wire,2013-08-23 15:16:00,
2013-08-23 11:22:00,72.8,60.2,29.92,NW,319,4.2,11.5,64,0.00,n/a,n/a,-99.99,Henriksen +1-Wire,2013-08-23 15:22:00,
2013-08-23 11:28:00,73.5,60.3,29.92,NW,316,3.6,8.7,62,0.00,n/a,n/a,-99.99,Henriksen +1-Wire,2013-08-23 15:28:00,
2013-08-23 11:34:00,73.7,50.1,29.92,NW,315,4.0,7.9,42,0.00,n/a,n/a,-99.99,Henriksen +1-Wire,2013-08-23 15:34:00,
2013-08-23 11:40:00,74.4,59.4,29.92,NW,319,2.3,7.2,59,0.00,n/a,n/a,-99.99,Henriksen +1-Wire,2013-08-23 15:40:00,
2013-08-23 11:46:00,74.2,60.3,29.92,NW,318,2.8,7.9,61,0.00,n/a,n/a,-99.99,Henriksen +1-Wire,2013-08-23 15:46:00,
2013-08-23 11:52:00,74.5,60.1,29.92,NNW,327,3.8,7.9,60,0.00,n/a,n/a,-99.99,Henriksen +1-Wire,2013-08-23 15:52:00,
2013-08-23 11:58:00,74.1,60.2,29.91,NW,323,4.5,8.8,61,0.00,n/a,n/a,-99.99,Henriksen +1-Wire,2013-08-23 15:58:00,
2013-08-23 12:04:00,73.7,59.5,29.92,NW,325,5.5,10.1,60,0.00,n/a,n/a,-99.99,Henriksen +1-Wire,2013-08-23 16:04:00,
2013-08-23 12:10:00,73.7,57.1,29.91,NW,326,4.6,10.1,55,0.00,n/a,n/a,-99.99,Henriksen +1-Wire,2013-08-23 16:10:00,
2013-08-23 12:16:00,74.7,50.5,29.92,NW,325,4.5,11.2,42,0.00,n/a,n/a,-99.99,Henriksen +1-Wire,2013-08-23 16:16:00,
2013-08-23 12:22:00,75.2,37.6,29.92,NW,323,3.4,11.4,25,0.00,n/a,n/a,-99.99,Henriksen +1-Wire,2013-08-23 16:22:00,
2013-08-23 12:28:00,75.4,54.5,29.91,NNW,333,6.6,10.8,47,0.00,n/a,n/a,-99.99,Henriksen +1-Wire,2013-08-23 16:28:00,
2013-08-23 12:34:00,75.8,42.0,29.91,NNW,333,5.7,10.4,29,0.00,n/a,n/a,-99.99,Henriksen +1-Wire,2013-08-23 16:34:00,
2013-08-23 12:40:00,75.9,51.6,29.91,NW,325,3.1,10.4,42,0.00,n/a,n/a,-99.99,Henriksen +1-Wire,2013-08-23 16:40:00,
2013-08-23 12:46:00,76.0,55.4,29.91,NW,319,4.1,7.3,48,0.00,n/a,n/a,-99.99,Henriksen +1-Wire,2013-08-23 16:46:00,
2013-08-23 12:52:00,75.6,54.0,29.91,NW,314,3.6,11.9,46,0.00,n/a,n/a,-99.99,Henriksen +1-Wire,2013-08-23 16:52:00,
2013-08-23 12:58:00,76.1,56.7,29.91,WNW,303,3.3,11.9,50,0.00,n/a,n/a,-99.99,Henriksen +1-Wire,2013-08-23 16:58:00,
2013-08-23 13:04:00,76.1,57.1,29.91,NNW,335,4.0,7.1,51,0.00,n/a,n/a,-99.99,Henriksen +1-Wire,2013-08-23 17:04:00,
2013-08-23 13:10:00,76.8,36.4,29.91,NNW,335,3.2,10.8,22,0.00,n/a,n/a,-99.99,Henriksen +1-Wire,2013-08-23 17:10:00,
2013-08-23 13:16:00,77.4,34.6,29.91,WNW,300,3.3,10.8,20,0.00,n/a,n/a,-99.99,Henriksen +1-Wire,2013-08-23 17:16:00,
2013-08-23 13:22:00,77.0,52.1,29.91,WNW,300,4.1,7.3,41,0.00,n/a,n/a,-99.99,Henriksen +1-Wire,2013-08-23 17:22:00,
2013-08-23 13:28:00,77.0,57.0,29.91,NW,315,1.5,9.0,49,0.00,n/a,n/a,-99.99,Henriksen +1-Wire,2013-08-23 17:28:00,
2013-08-23 13:34:00,77.1,47.8,29.91,NNW,331,4.7,9.0,35,0.00,n/a,n/a,-99.99,Henriksen +1-Wire,2013-08-23 17:34:00,
2013-08-23 13:40:00,77.7,56.5,29.91,NW,325,3.2,8.8,47,0.00,n/a,n/a,-99.99,Henriksen +1-Wire,2013-08-23 17:40:00,
2013-08-23 13:46:00,77.5,47.2,29.92,NW,313,3.4,7.1,33,0.00,n/a,n/a,-99.99,Henriksen +1-Wire,2013-08-23 17:46:00,
2013-08-23 13:52:00,76.8,54.8,29.92,NW,324,2.8,7.8,46,0.00,n/a,n/a,-99.99,Henriksen +1-Wire,2013-08-23 17:52:00,
2013-08-23 13:58:00,76.7,49.4,29.92,WNW,301,1.9,6.9,37,0.00,n/a,n/a,-99.99,Henriksen +1-Wire,2013-08-23 17:58:00,
2013-08-23 14:04:00,77.1,53.1,29.92,NW,313,2.8,7.1,42,0.00,n/a,n/a,-99.99,Henriksen +1-Wire,2013-08-23 18:04:00,
2013-08-23 14:10:00,77.2,55.8,29.92,NW,319,3.7,7.3,47,0.00,n/a,n/a,-99.99,Henriksen +1-Wire,2013-08-23 18:10:00,
2013-08-23 14:16:00,78.6,57.6,29.92,NNW,332,2.7,7.1,48,0.00,n/a,n/a,-99.99,Henriksen +1-Wire,2013-08-23 18:16:00,
2013-08-23 14:22:00,77.9,55.6,29.92,NNW,336,5.2,7.3,45,0.00,n/a,n/a,-99.99,Henriksen +1-Wire,2013-08-23 18:22:00,
2013-08-23 14:28:00,77.4,55.9,29.92,NNW,336,1.3,7.3,46,0.00,n/a,n/a,-99.99,Henriksen +1-Wire,2013-08-23 18:28:00,
2013-08-23 14:34:00,77.2,56.1,29.92,NW,313,2.5,9.8,47,0.00,n/a,n/a,-99.99,Henriksen +1-Wire,2013-08-23 18:34:00,
2013-08-23 14:40:00,77.8,50.5,29.92,NW,316,2.4,9.8,37,0.00,n/a,n/a,-99.99,Henriksen +1-Wire,2013-08-23 18:40:00,
2013-08-23 14:46:00,77.5,52.3,29.93,NNW,336,3.0,7.5,41,0.00,n/a,n/a,-99.99,Henriksen +1-Wire,2013-08-23 18:46:00,
2013-08-23 14:52:00,77.6,56.5,29.92,NW,323,3.5,7.8,47,0.00,n/a,n/a,-99.99,Henriksen +1-Wire,2013-08-23 18:52:00,
2013-08-23 14:58:00,78.2,56.1,29.92,NW,321,5.1,7.8,45,0.00,n/a,n/a,-99.99,Henriksen +1-Wire,2013-08-23 18:58:00,
2013-08-23 15:04:00,77.7,55.1,29.93,NW,322,5.5,8.7,45,0.00,n/a,n/a,-99.99,Henriksen +1-Wire,2013-08-23 19:04:00,
2013-08-23 15:10:00,77.4,55.4,29.93,NW,325,2.0,8.7,46,0.00,n/a,n/a,-99.99,Henriksen +1-Wire,2013-08-23 19:10:00,
2013-08-23 19:44:00,75.7,65.1,29.99,WSW,256,0.4,0.0,69,0.00,n/a,n/a,-99.99,Henriksen +1-Wire,2013-08-23 23:44:00,
2013-08-23 19:50:00,72.0,61.2,29.99,WNW,291,0.0,0.0,68,0.00,n/a,n/a,-99.99,Henriksen +1-Wire,2013-08-23 23:50:00,
2013-08-23 19:56:00,69.9,60.2,29.99,East,98,0.1,0.6,71,0.00,n/a,n/a,-99.99,Henriksen +1-Wire,2013-08-23 23:56:00,
2013-08-23 20:02:00,68.5,59.3,30.00,NW,315,1.4,3.1,72,0.00,n/a,n/a,-99.99,Henriksen +1-Wire,2013-08-24 00:02:00,
2013-08-23 20:08:00,67.8,58.0,30.00,WNW,302,0.3,3.4,70,0.00,n/a,n/a,-99.99,Henriksen +1-Wire,2013-08-24 00:08:00,
2013-08-23 20:14:00,67.9,57.3,30.01,NNW,333,0.6,3.4,68,0.00,n/a,n/a,-99.99,Henriksen +1-Wire,2013-08-24 00:14:00,
2013-08-23 20:20:00,67.6,57.5,30.01,NW,316,0.0,2.5,69,0.00,n/a,n/a,-99.99,Henriksen +1-Wire,2013-08-24 00:20:00,
2013-08-23 20:26:00,67.6,56.5,30.01,West,276,0.0,2.8,67,0.00,n/a,n/a,-99.99,Henriksen +1-Wire,2013-08-24 00:26:00,
2013-08-23 20:32:00,67.4,57.1,30.01,SE,139,0.0,1.5,69,0.00,n/a,n/a,-99.99,Henriksen +1-Wire,2013-08-24 00:32:00,
2013-08-23 20:38:00,66.9,57.1,30.01,SSE,155,0.6,1.9,70,0.00,n/a,n/a,-99.99,Henriksen +1-Wire,2013-08-24 00:38:00,
2013-08-23 20:44:00,66.5,56.9,30.01,NNE,19,1.3,2.1,70,0.00,n/a,n/a,-99.99,Henriksen +1-Wire,2013-08-24 00:44:00,
2013-08-23 20:50:00,66.4,55.2,30.02,SSE,160,0.5,2.1,66,0.00,n/a,n/a,-99.99,Henriksen +1-Wire,2013-08-24 00:50:00,
2013-08-23 20:56:00,66.7,53.6,30.03,NNW,330,0.3,2.5,62,0.00,n/a,n/a,-99.99,Henriksen +1-Wire,2013-08-24 00:56:00,
2013-08-23 21:02:00,66.4,53.6,30.03,WNW,294,0.6,2.5,63,0.00,n/a,n/a,-99.99,Henriksen +1-Wire,2013-08-24 01:02:00,
2013-08-23 21:08:00,66.4,53.4,30.03,NW,309,0.0,1.9,62,0.00,n/a,n/a,-99.99,Henriksen +1-Wire,2013-08-24 01:08:00,
2013-08-23 21:14:00,66.3,52.7,30.03,NW,318,0.0,0.0,61,0.00,n/a,n/a,-99.99,Henriksen +1-Wire,2013-08-24 01:14:00,
2013-08-23 21:20:00,65.9,52.9,30.03,NNW,329,0.0,0.0,62,0.00,n/a,n/a,-99.99,Henriksen +1-Wire,2013-08-24 01:20:00,
2013-08-23 21:26:00,65.6,52.6,30.04,WNW,286,0.0,0.0,62,0.00,n/a,n/a,-99.99,Henriksen +1-Wire,2013-08-24 01:26:00,
2013-08-23 21:32:00,66.7,52.4,30.04,NW,312,0.0,0.0,59,0.00,n/a,n/a,-99.99,Henriksen +1-Wire,2013-08-24 01:32:00,
2013-08-23 21:38:00,67.0,52.1,30.04,NW,313,1.2,2.1,58,0.00,n/a,n/a,-99.99,Henriksen +1-Wire,2013-08-24 01:38:00,
2013-08-23 21:44:00,66.9,51.9,30.04,NW,319,1.7,3.8,58,0.00,n/a,n/a,-99.99,Henriksen +1-Wire,2013-08-24 01:44:00,
2013-08-23 21:50:00,67.4,51.1,30.04,NNW,334,1.9,5.7,55,0.00,n/a,n/a,-99.99,Henriksen +1-Wire,2013-08-24 01:50:00,
2013-08-23 21:56:00,67.1,51.3,30.05,WNW,293,3.2,6.9,56,0.00,n/a,n/a,-99.99,Henriksen +1-Wire,2013-08-24 01:56:00,
2013-08-23 22:02:00,67.2,50.5,30.05,NW,319,2.8,6.9,54,0.00,n/a,n/a,-99.99,Henriksen +1-Wire,2013-08-24 02:02:00,
2013-08-23 22:08:00,67.3,50.1,30.05,NNW,327,2.1,5.9,53,0.00,n/a,n/a,-99.99,Henriksen +1-Wire,2013-08-24 02:08:00,
2013-08-23 22:14:00,67.5,49.8,30.05,NNW,333,3.5,6.3,52,0.00,n/a,n/a,-99.99,Henriksen +1-Wire,2013-08-24 02:14:00,
2013-08-23 22:20:00,67.3,49.9,30.05,NW,324,3.2,6.3,53,0.00,n/a,n/a,-99.99,Henriksen +1-Wire,2013-08-24 02:20:00,
2013-08-23 22:26:00,67.3,49.8,30.06,NNW,333,1.9,6.5,52,0.00,n/a,n/a,-99.99,Henriksen +1-Wire,2013-08-24 02:26:00,
2013-08-23 22:32:00,67.0,50.0,30.06,NNW,331,2.3,6.5,54,0.00,n/a,n/a,-99.99,Henriksen +1-Wire,2013-08-24 02:32:00,
2013-08-23 22:38:00,67.0,49.7,30.07,NNW,332,2.7,5.6,53,0.00,n/a,n/a,-99.99,Henriksen +1-Wire,2013-08-24 02:38:00,
2013-08-23 22:44:00,66.6,49.5,30.07,NNW,329,3.1,5.9,53,0.00,n/a,n/a,-99.99,Henriksen +1-Wire,2013-08-24 02:44:00,
2013-08-23 22:50:00,66.3,49.7,30.07,NNW,336,2.4,6.0,54,0.00,n/a,n/a,-99.99,Henriksen +1-Wire,2013-08-24 02:50:00,
2013-08-23 22:56:00,66.2,49.9,30.07,NNW,327,1.8,6.0,55,0.00,n/a,n/a,-99.99,Henriksen +1-Wire,2013-08-24 02:56:00,
2013-08-23 23:02:00,65.8,50.3,30.07,North,351,0.0,3.4,56,0.00,n/a,n/a,-99.99,Henriksen +1-Wire,2013-08-24 03:02:00,
2013-08-23 23:08:00,65.5,50.5,30.08,NNW,338,0.0,0.0,57,0.00,n/a,n/a,-99.99,Henriksen +1-Wire,2013-08-24 03:08:00,
2013-08-23 23:14:00,64.8,50.4,30.08,NW,322,0.0,0.0,59,0.00,n/a,n/a,-99.99,Henriksen +1-Wire,2013-08-24 03:14:00,
2013-08-23 23:20:00,64.1,50.7,30.08,NW,317,0.5,3.1,61,0.00,n/a,n/a,-99.99,Henriksen +1-Wire,2013-08-24 03:20:00,
2013-08-23 23:26:00,63.4,50.7,30.08,NW,309,0.9,3.1,62,0.00,n/a,n/a,-99.99,Henriksen +1-Wire,2013-08-24 03:26:00,
2013-08-23 23:32:00,62.9,51.2,30.09,NW,305,0.1,1.5,65,0.00,n/a,n/a,-99.99,Henriksen +1-Wire,2013-08-24 03:32:00,
2013-08-23 23:38:00,62.3,51.3,30.09,NW,309,0.1,1.9,66,0.00,n/a,n/a,-99.99,Henriksen +1-Wire,2013-08-24 03:38:00,
2013-08-23 23:44:00,61.9,50.8,30.09,WNW,287,0.0,1.6,66,0.00,n/a,n/a,-99.99,Henriksen +1-Wire,2013-08-24 03:44:00,
2013-08-23 23:50:00,62.1,51.1,30.09,West,268,0.1,0.6,67,0.00,n/a,n/a,-99.99,Henriksen +1-Wire,2013-08-24 03:50:00,
2013-08-23 23:56:00,61.6,50.7,30.09,NNW,332,0.4,1.8,67,0.00,n/a,n/a,-99.99,Henriksen +1-Wire,2013-08-24 03:56:00,